This is the latest recevied weather packets stored in our database for station/object AA7F. If no packets are shown the sender has not sent any weather packets the latest 10 day(s).
| Time | Temp. | Humidity | Pressure | Rain* | Wind** | Luminosity | Snow |
|---|---|---|---|---|---|---|---|
| 1777275130 | 5° C | 79% | 1012 hPa | 0 mm | - | 0 W/m² | - |
| 1777274826 | 5° C | 79% | 1012.2 hPa | 0 mm | - | 0 W/m² | - |
| 1777274523 | 5° C | 78% | 1011.9 hPa | 0 mm | - | 0 W/m² | - |
| 1777274218 | 5.56° C | 79% | 1012 hPa | 0 mm | - | 0 W/m² | - |
| 1777273914 | 5.56° C | 76% | 1012 hPa | 0 mm | - | 0 W/m² | - |
| 1777273611 | 5.56° C | 76% | 1011.9 hPa | 0 mm | - | 0 W/m² | - |
| 1777273310 | 5.56° C | 76% | 1011.8 hPa | 0 mm | - | 0 W/m² | - |
| 1777273007 | 5.56° C | 77% | 1011.7 hPa | 0 mm | - | 0 W/m² | - |
| 1777272704 | 5.56° C | 76% | 1011.7 hPa | 0 mm | - | 0 W/m² | - |
| 1777272402 | 6.11° C | 75% | 1011.6 hPa | 0 mm | - | 0 W/m² | - |
| 1777272099 | 6.11° C | 74% | 1011.7 hPa | 0 mm | - | 0 W/m² | - |
| 1777271795 | 6.11° C | 74% | 1011.4 hPa | 0 mm | - | 0 W/m² | - |
| 1777271491 | 6.11° C | 74% | 1011.6 hPa | 0 mm | - | 0 W/m² | - |
| 1777271188 | 6.11° C | 74% | 1011.3 hPa | 0 mm | - | 0 W/m² | - |
| 1777270884 | 6.11° C | 74% | 1011.3 hPa | 0 mm | - | 0 W/m² | - |
| 1777270580 | 6.11° C | 74% | 1011.4 hPa | 0 mm | - | 0 W/m² | - |
| 1777270277 | 6.11° C | 75% | 1011.4 hPa | 0 mm | - | 0 W/m² | - |
| 1777269974 | 6.67° C | 73% | 1011.2 hPa | 0 mm | - | 0 W/m² | - |
| 1777269669 | 6.67° C | 71% | 1011.4 hPa | 0 mm | - | 0 W/m² | - |
| 1777269367 | 7.22° C | 70% | 1011.3 hPa | 0 mm | - | 0 W/m² | - |
| 1777269065 | 7.22° C | 70% | 1011.3 hPa | 0 mm | - | 0 W/m² | - |
| 1777268762 | 6.67° C | 73% | 1011.1 hPa | 0 mm | - | 0 W/m² | - |
| 1777268459 | 7.22° C | 71% | 1011.2 hPa | 0 mm | - | 0 W/m² | - |
| 1777268155 | 6.67° C | 71% | 1011.1 hPa | 0 mm | - | 0 W/m² | - |
| 1777267852 | 6.67° C | 72% | 1011.4 hPa | 0 mm | - | 0 W/m² | - |
* Rain latest hour (hover to see other rain measurements)
** Current wind speed in m/s (hover to see current wind gust speed)